Flag for Canada Weather past 2 weeks in Halton Hills, Ontario, Canada

Now
50 °F

Passing clouds.


Feels Like: 47 °F
Forecast: N/A
Wind: 8 mph from Southeast

Location: Toronto Pearson International Airport


UV Index: N/A

Visibility: 15 mi


Pressure: 30.43 "Hg

Humidity: 50%

Dew point: 32 °F

Location of Halton HillsLocation

Historic Weather in Halton Hills

°F

Halton Hills temperature yesterday

Maximum temperature yesterday: 52 °F (at 1:00 PM)
Minimum temperature yesterday: 39 °F (at 11:00 PM)
Average temperature yesterday: 45 °F

Past Weeks' High & Low Weather Summary

 TemperatureHumidityPressure
High72 °F (Apr 13, 5:00 PM)100% (Apr 4, 4:00 PM)30.56 "Hg (Apr 4, 4:00 PM)
Low21 °F (Apr 16, 3:00 AM)26% (Apr 11, 6:00 PM)29.33 "Hg (Apr 8, 6:00 AM)
Average43 °F64%29.98 "Hg
* Reported Apr 4 3:00 PM — Apr 19 3:00 PM, Halton Hills, Weather by CustomWeather, © 2014

Note: Actual official high and low records may vary slightly from our data, if they occured in-between our weather recording intervals... More about our weather records

Advertising

Historic Weather Conditions — Data for Previous 24 hours

 ConditionsComfort  
Time TempWeatherWind HumidityBarometerVisibility
3:00 PM
Apr 19
50 °FPassing clouds.6 mph50%30.44 "Hg15 mi
2:00 PM50 °FPassing clouds.9 mph37%30.46 "Hg15 mi
1:00 PM48 °FPassing clouds.8 mph46%30.47 "Hg15 mi
12:00 PM46 °FPassing clouds.5 mph53%30.47 "Hg15 mi
11:00 AM43 °FScattered clouds.12 mph61%30.48 "Hg15 mi
10:00 AM41 °FPassing clouds.12 mph66%30.48 "Hg15 mi
9:00 AM39 °FPassing clouds.13 mph70%30.47 "Hg15 mi
8:00 AM36 °FSunny.15 mph81%30.45 "Hg15 mi
7:00 AM34 °FClear.9 mph81%30.42 "Hg15 mi
6:00 AM32 °FClear.6 mph80%30.40 "Hg15 mi
5:00 AM32 °FClear.6 mph80%30.37 "Hg15 mi
4:00 AM32 °FClear.6 mph80%30.34 "Hg15 mi
3:00 AM34 °FClear.10 mph81%30.33 "Hg15 mi
2:00 AM34 °FClear.10 mph75%30.33 "Hg15 mi
1:00 AM36 °FPassing clouds.12 mph70%30.33 "Hg15 mi
12:00 AM37 °FPassing clouds.14 mph70%30.31 "Hg15 mi
11:00 PM
Apr 18
39 °FClear.10 mph70%30.30 "Hg15 mi
10:00 PM41 °FPassing clouds.13 mph70%30.29 "Hg15 mi
9:00 PM45 °FScattered clouds.13 mph61%30.27 "Hg15 mi
8:00 PM46 °FBroken clouds.15 mph62%30.25 "Hg15 mi
7:00 PM50 °FBroken clouds.18 mph58%30.24 "Hg15 mi
6:00 PM50 °FMore clouds than sun.10 mph62%30.25 "Hg15 mi
5:00 PM46 °FMore clouds than sun.8 mph87%30.26 "Hg10 mi
4:00 PM48 °FSprinkles. More clouds than sun.13 mph82%30.25 "Hg15 mi
Weather by CustomWeather, © 2014

See weather overview